| time (UTC) | temp F | wind direction | speed MPH | gust MPH | rain 1hr in | rain 24hr in | rain mn in | humidity % | barometer mb |
| 20260505205004 | 49 | 348 | 5.0 | 14.0 | 0.04 | 1.23 | 1.23 | 90 | 1008.7 |
| 20260505204004 | 49 | 351 | 3.0 | 6.0 | 0.03 | 1.22 | 1.22 | 90 | 1008.5 |
| 20260505203004 | 50 | 341 | 4.0 | 9.0 | 0.03 | 1.22 | 1.22 | 90 | 1008.5 |
| 20260505202004 | 50 | 338 | 3.0 | 9.0 | 0.02 | 1.21 | 1.21 | 90 | 1008.4 |
| 20260505201004 | 50 | 345 | 3.0 | 8.0 | 0.01 | 1.20 | 1.20 | 90 | 1008.3 |
| 20260505200004 | 51 | 348 | 2.0 | 5.0 | 0.00 | 1.19 | 1.19 | 90 | 1008.3 |
| 20260505195004 | 51 | 349 | 2.0 | 4.0 | 0.00 | 1.19 | 1.19 | 90 | 1008.0 |
| 20260505194004 | 51 | 344 | 2.0 | 4.0 | 0.01 | 1.19 | 1.19 | 90 | 1008.1 |
| 20260505193004 | 51 | 316 | 2.0 | 8.0 | 0.02 | 1.19 | 1.19 | 90 | 1008.2 |
| 20260505192004 | 52 | 335 | 3.0 | 9.0 | 0.03 | 1.19 | 1.19 | 90 | 1008.2 |
| 20260505191004 | 52 | 355 | 2.0 | 7.0 | 0.04 | 1.19 | 1.19 | 90 | 1008.1 |
| 20260505190004 | 52 | 11 | 2.0 | 4.0 | 0.05 | 1.19 | 1.19 | 90 | 1008.0 |
| 20260505185004 | 52 | 2 | 1.0 | 5.0 | 0.08 | 1.19 | 1.19 | 90 | 1008.0 |
| 20260505184004 | 52 | 10 | 2.0 | 5.0 | 0.09 | 1.18 | 1.18 | 90 | 1008.0 |
| 20260505183025 | 52 | 8 | 2.0 | 5.0 | 0.10 | 1.17 | 1.17 | 90 | 1007.6 |
| 20260505182025 | 51 | 26 | 1.0 | 3.0 | 0.12 | 1.16 | 1.16 | 90 | 1008.1 |
| 20260505181004 | 50 | 23 | 1.0 | 2.0 | 0.12 | 1.15 | 1.15 | 90 | 1008.2 |
| 20260505180004 | 50 | 23 | 1.0 | 4.0 | 0.13 | 1.14 | 1.14 | 89 | 1008.1 |
| 20260505175004 | 50 | 357 | 1.0 | 3.0 | 0.11 | 1.11 | 1.11 | 89 | 1008.5 |
| 20260505174004 | 50 | 19 | 1.0 | 3.0 | 0.10 | 1.09 | 1.09 | 89 | 1008.6 |
| 20260505173004 | 50 | 353 | 1.0 | 3.0 | 0.08 | 1.07 | 1.07 | 89 | 1008.7 |
| 20260505172004 | 50 | 357 | 0.0 | 3.0 | 0.05 | 1.04 | 1.04 | 88 | 1008.9 |
| 20260505171004 | 51 | 334 | 0.0 | 3.0 | 0.04 | 1.03 | 1.03 | 88 | 1009.3 |
| 20260505170004 | 51 | 343 | 1.0 | 3.0 | 0.02 | 1.01 | 1.01 | 87 | 1009.0 |
| 20260505165004 | 51 | 344 | 1.0 | 3.0 | 0.03 | 1.00 | 1.00 | 87 | 1009.1 |
| 20260505164004 | 52 | 355 | 2.0 | 5.0 | 0.02 | 0.99 | 0.99 | 87 | 1008.9 |
| 20260505163004 | 52 | 348 | 4.0 | 10.0 | 0.02 | 0.99 | 0.99 | 87 | 1008.8 |
| 20260505162004 | 53 | 336 | 1.0 | 5.0 | 0.04 | 0.99 | 0.99 | 89 | 1009.1 |
| 20260505161004 | 53 | 335 | 2.0 | 7.0 | 0.07 | 0.99 | 0.99 | 89 | 1009.1 |
| 20260505153004 | 57 | 216 | 1.0 | 4.0 | 0.12 | 0.97 | 0.97 | 90 | 1008.7 |
| 20260505152004 | 57 | 284 | 0.0 | 3.0 | 0.10 | 0.95 | 0.95 | 90 | 1007.9 |
| 20260505151004 | 57 | 238 | 1.0 | 4.0 | 0.07 | 0.92 | 0.92 | 90 | 1008.6 |
| 20260505125004 | 56 | 190 | 2.0 | 5.0 | 0.00 | 0.85 | 0.85 | 90 | 1007.6 |
| 20260505124025 | 56 | 189 | 2.0 | 5.0 | 0.00 | 0.85 | 0.85 | 90 | 1007.6 |
| 20260505123004 | 56 | 197 | 2.0 | 5.0 | 0.00 | 0.85 | 0.85 | 90 | 1007.6 |
| 20260505122004 | 56 | 176 | 2.0 | 5.0 | 0.00 | 0.85 | 0.85 | 90 | 1007.5 |
| 20260505121004 | 56 | 175 | 2.0 | 8.0 | 0.00 | 0.85 | 0.85 | 90 | 1007.5 |
| 20260505120005 | 56 | 174 | 2.0 | 7.0 | 0.00 | 0.85 | 0.85 | 90 | 1007.5 |
| 20260505115004 | 56 | 177 | 2.0 | 5.0 | 0.00 | 0.85 | 0.85 | 90 | 1007.4 |
| 20260505114004 | 55 | 170 | 2.0 | 5.0 | 0.00 | 0.85 | 0.85 | 90 | 1007.0 |
| 20260505113004 | 55 | 195 | 2.0 | 4.0 | 0.00 | 0.85 | 0.85 | 90 | 1006.9 |
| 20260505112025 | 55 | 208 | 2.0 | 6.0 | 0.00 | 0.85 | 0.85 | 90 | 1006.7 |
| 20260505111004 | 55 | 179 | 3.0 | 9.0 | 0.00 | 0.85 | 0.85 | 90 | 1006.6 |
| 20260505102004 | 55 | 165 | 4.0 | 8.0 | 0.00 | 0.85 | 0.85 | 90 | 1006.5 |
| 20260505101004 | 55 | 172 | 4.0 | 9.0 | 0.00 | 0.85 | 0.85 | 90 | 1006.5 |
| 20260505100004 | 55 | 169 | 4.0 | 10.0 | 0.00 | 0.85 | 0.85 | 90 | 1006.3 |
| 20260505095004 | 55 | 163 | 4.0 | 11.0 | 0.00 | 0.85 | 0.85 | 90 | 1005.9 |
| 20260505094004 | 55 | 142 | 4.0 | 10.0 | 0.00 | 0.85 | 0.85 | 90 | 1005.8 |
| 20260505093004 | 55 | 172 | 3.0 | 8.0 | 0.00 | 0.85 | 0.85 | 90 | 1006.1 |
| 20260505092004 | 55 | 172 | 3.0 | 8.0 | 0.00 | 0.85 | 0.85 | 90 | 1005.8 |
| 20260505091025 | 55 | 163 | 5.0 | 11.0 | 0.05 | 0.85 | 0.85 | 90 | 1005.7 |
| 20260505090004 | 55 | 154 | 7.0 | 13.0 | 0.10 | 0.85 | 0.85 | 90 | 1005.4 |
| 20260505085004 | 55 | 155 | 6.0 | 11.0 | 0.16 | 0.85 | 0.85 | 90 | 1005.3 |
| 20260505084004 | 55 | 150 | 7.0 | 12.0 | 0.20 | 0.85 | 0.85 | 90 | 1004.7 |
| 20260505083004 | 55 | 148 | 7.0 | 18.0 | 0.26 | 0.85 | 0.85 | 90 | 1004.8 |
| 20260505082004 | 55 | 128 | 9.0 | 16.0 | 0.30 | 0.85 | 0.85 | 91 | 1004.0 |
| 20260505081004 | 55 | 148 | 6.0 | 11.0 | 0.29 | 0.80 | 0.80 | 91 | 1006.0 |
| 20260505080004 | 55 | 159 | 3.0 | 7.0 | 0.30 | 0.75 | 0.75 | 91 | 1006.8 |
| 20260505075004 | 55 | 160 | 2.0 | 5.0 | 0.27 | 0.69 | 0.69 | 91 | 1007.1 |
| 20260505074004 | 55 | 232 | 0.0 | 2.0 | 0.25 | 0.65 | 0.65 | 90 | 1007.2 |
| 20260505073004 | 55 | 159 | 1.0 | 2.0 | 0.20 | 0.59 | 0.59 | 90 | 1007.6 |
| 20260505072004 | 56 | 181 | 1.0 | 4.0 | 0.16 | 0.55 | 0.55 | 90 | 1007.6 |
| 20260505071004 | 55 | 210 | 2.0 | 3.0 | 0.15 | 0.51 | 0.51 | 90 | 1007.7 |
| 20260505070004 | 55 | 172 | 0.0 | 1.0 | 0.13 | 0.45 | 0.45 | 90 | 1007.2 |
| 20260505065004 | 55 | 143 | 0.0 | 2.0 | 0.14 | 0.42 | 0.42 | 89 | 1006.9 |
| 20260505064004 | 56 | 143 | 0.0 | 1.0 | 0.15 | 0.40 | 0.40 | 89 | 1006.8 |
| 20260505063025 | 56 | 106 | 1.0 | 2.0 | 0.18 | 0.39 | 0.39 | 88 | 1006.7 |
| 20260505062025 | 56 | 32 | 1.0 | 3.0 | 0.20 | 0.39 | 0.39 | 88 | 1006.5 |
| 20260505061004 | 56 | 337 | 0.0 | 2.0 | 0.19 | 0.36 | 0.36 | 87 | 1007.1 |
| 20260505060004 | 56 | 352 | 1.0 | 4.0 | 0.32 | 0.32 | 0.32 | 86 | 1007.5 |
| 20260505055004 | 56 | 352 | 2.0 | 8.0 | 0.28 | 0.28 | 0.28 | 84 | 1007.4 |
| 20260505054004 | 57 | 347 | 3.0 | 10.0 | 0.25 | 0.25 | 0.25 | 83 | 1007.4 |
| 20260505053004 | 58 | 350 | 6.0 | 11.0 | 0.21 | 0.21 | 0.21 | 83 | 1007.3 |
| 20260505052025 | 58 | 292 | 3.0 | 11.0 | 0.19 | 0.19 | 0.19 | 82 | 1006.7 |
| 20260505051004 | 62 | 244 | 9.0 | 29.0 | 0.17 | 0.17 | 0.17 | 73 | 1006.2 |
| 20260505041004 | 68 | 193 | 5.0 | 13.0 | 0.00 | 0.00 | 0.00 | 52 | 1003.3 |
| 20260505040005 | 68 | 178 | 5.0 | 14.0 | 0.00 | 0.00 | 0.00 | 52 | 1003.2 |
| 20260505035025 | 68 | 181 | 5.0 | 15.0 | 0.00 | 0.00 | 0.00 | 52 | 1003.2 |
| 20260505034004 | 68 | 178 | 5.0 | 12.0 | 0.00 | 0.00 | 0.00 | 52 | 1003.3 |
| 20260505033004 | 68 | 178 | 5.0 | 17.0 | 0.00 | 0.00 | 0.00 | 53 | 1003.3 |
| 20260505032025 | 68 | 165 | 6.0 | 14.0 | 0.00 | 0.00 | 0.00 | 52 | 1003.4 |
| 20260505031025 | 68 | 169 | 5.0 | 14.0 | 0.00 | 0.00 | 0.00 | 53 | 1003.5 |
| 20260505030004 | 68 | 172 | 4.0 | 12.0 | 0.00 | 0.00 | 0.00 | 53 | 1003.6 |
| 20260505025025 | 69 | 165 | 6.0 | 16.0 | 0.00 | 0.00 | 0.00 | 53 | 1003.6 |
| 20260505024004 | 69 | 171 | 4.0 | 8.0 | 0.00 | 0.00 | 0.00 | 53 | 1003.7 |
| 20260505023004 | 69 | 180 | 5.0 | 12.0 | 0.00 | 0.00 | 0.00 | 53 | 1003.6 |
| 20260505022004 | 69 | 195 | 5.0 | 12.0 | 0.00 | 0.00 | 0.00 | 53 | 1003.7 |
| 20260505021004 | 69 | 179 | 4.0 | 10.0 | 0.00 | 0.00 | 0.00 | 53 | 1003.9 |
| 20260505020004 | 69 | 181 | 5.0 | 12.0 | 0.00 | 0.00 | 0.00 | 53 | 1003.6 |
| 20260505015004 | 70 | 172 | 4.0 | 11.0 | 0.00 | 0.00 | 0.00 | 53 | 1003.6 |
| 20260505014003 | 70 | 191 | 4.0 | 15.0 | 0.00 | 0.00 | 0.00 | 53 | 1003.4 |
| 20260505013003 | 70 | 179 | 4.0 | 10.0 | 0.00 | 0.00 | 0.00 | 52 | 1003.3 |
| 20260505012004 | 70 | 189 | 4.0 | 12.0 | 0.00 | 0.00 | 0.00 | 53 | 1003.0 |
| 20260505011025 | 70 | 178 | 5.0 | 12.0 | 0.00 | 0.00 | 0.00 | 52 | 1002.8 |
| 20260505010004 | 70 | 186 | 4.0 | 15.0 | 0.00 | 0.00 | 0.00 | 52 | 1002.6 |
| 20260505005004 | 70 | 175 | 5.0 | 17.0 | 0.00 | 0.00 | 0.00 | 51 | 1002.3 |
| 20260505004004 | 70 | 174 | 5.0 | 12.0 | 0.00 | 0.00 | 0.00 | 51 | 1002.4 |
| 20260505003025 | 71 | 175 | 6.0 | 15.0 | 0.00 | 0.00 | 0.00 | 51 | 1002.2 |
| 20260505002004 | 71 | 182 | 6.0 | 15.0 | 0.00 | 0.00 | 0.00 | 50 | 1002.2 |
| 20260505001004 | 72 | 178 | 6.0 | 13.0 | 0.00 | 0.00 | 0.00 | 49 | 1002.1 |
| 20260505000004 | 72 | 188 | 5.0 | 22.0 | 0.00 | 0.00 | 0.00 | 49 | 1002.2 |
| 20260504235004 | 72 | 192 | 8.0 | 22.0 | 0.00 | 0.00 | 0.00 | 47 | 1002.4 |
| 20260504234004 | 73 | 195 | 8.0 | 19.0 | 0.00 | 0.00 | 0.00 | 46 | 1002.6 |
| 20260504233004 | 73 | 205 | 9.0 | 19.0 | 0.00 | 0.00 | 0.00 | 45 | 1002.8 |
| 20260504232004 | 74 | 188 | 7.0 | 15.0 | 0.00 | 0.00 | 0.00 | 45 | 1002.9 |
| 20260504231004 | 74 | 196 | 10.0 | 22.0 | 0.00 | 0.00 | 0.00 | 44 | 1003.1 |
| 20260504230004 | 74 | 195 | 8.0 | 22.0 | 0.00 | 0.00 | 0.00 | 45 | 1003.3 |
| 20260504225004 | 74 | 196 | 8.0 | 16.0 | 0.00 | 0.00 | 0.00 | 47 | 1003.5 |
| 20260504224004 | 74 | 201 | 7.0 | 19.0 | 0.00 | 0.00 | 0.00 | 46 | 1003.6 |
| 20260504223004 | 73 | 185 | 8.0 | 23.0 | 0.00 | 0.00 | 0.00 | 52 | 1003.6 |
| 20260504222025 | 73 | 156 | 7.0 | 23.0 | 0.00 | 0.00 | 0.00 | 55 | 1003.5 |
| 20260504221004 | 73 | 187 | 7.0 | 14.0 | 0.00 | 0.00 | 0.00 | 57 | 1003.6 |
| 20260504220025 | 73 | 176 | 6.0 | 20.0 | 0.00 | 0.00 | 0.00 | 59 | 1003.9 |
| 20260504215004 | 71 | 166 | 6.0 | 15.0 | 0.00 | 0.00 | 0.00 | 60 | 1004.1 |
| 20260504214004 | 70 | 158 | 6.0 | 12.0 | 0.00 | 0.00 | 0.00 | 60 | 1003.9 |
| 20260504213004 | 71 | 167 | 8.0 | 19.0 | 0.00 | 0.00 | 0.00 | 60 | 1004.0 |
| 20260504212004 | 71 | 158 | 8.0 | 16.0 | 0.00 | 0.00 | 0.00 | 60 | 1004.1 |
| 20260504211025 | 71 | 167 | 7.0 | 16.0 | 0.00 | 0.00 | 0.00 | 62 | 1004.3 |
| 20260504210004 | 69 | 164 | 5.0 | 12.0 | 0.00 | 0.00 | 0.00 | 64 | 1004.4 |